Regional Weather Roundup
Issued by NWS Green Bay, WI

Home | Current Version | Previous Version | Text Only | Print | Product List | Glossary On
Versions: 1 2 3 4 5 6 7 8 9 10 11 12 13 14 15 16 17 18 19 20 21 22 23 24 25 26 27 28 29 30 31 32 33 34 35 36 37 38 39 40 41 42 43 44 45 46 47 48 49 50
000
ASUS43 KGRB 060559
RWRGRB

NORTH-CENTRAL AND NORTHEAST WISCONSIN REGIONAL WEATHER ROUNDUP
NATIONAL WEATHER SERVICE GREEN BAY WI
100 AM CDT WED MAY 06 2015

WIZ005-009-010>012-018-019-060700-
NORTH CENTRAL WISCONSIN

CITY           SKY/WX    TMP DP  RH WIND       PRES   REMARKS
IRONWOOD       PTCLDY    55  25  30 CALM      30.18S
MANITOWISH WTR NOT AVBL
ARBOR VITAE    NOT AVBL
EAGLE RIVER    NOT AVBL
LAND O LAKES   NOT AVBL
RHINELANDER    PTCLDY    50  28  42 SE3       30.24F
PHILLIPS       NOT AVBL
ANTIGO         NOT AVBL
TOMAHAWK       NOT AVBL
MERRILL        NOT AVBL
$$

WIZ013-073-060700-
NORTHEAST WISCONSIN

CITY           SKY/WX    TMP DP  RH WIND       PRES   REMARKS
IRON MOUNTAIN  PTCLDY    38  30  73 CALM      30.25S
MARINETTE      CLOUDY    46  39  76 CALM      30.25S
$$

WIZ017-030-035>037-045-060700-
CENTRAL WISCONSIN

CITY           SKY/WX    TMP DP  RH WIND       PRES   REMARKS
MEDFORD        NOT AVBL
WAUSAU         LGT RAIN  53  33  46 SE6       30.22S
MOSINEE        NOT AVBL
MARSHFIELD     CLOUDY    53  43  68 SE8       30.22S
WISC RAPIDS    LGT RAIN  52  47  83 SE5       30.23S
STEVENS POINT  NOT AVBL
WAUPACA        NOT AVBL
SHAWANO        NOT AVBL
CLINTONVILLE   NOT AVBL
$$

WIZ038-039-048-051-060700-
FOX VALLEY

CITY           SKY/WX    TMP DP  RH WIND       PRES   REMARKS
NWS GREEN BAY  CLOUDY    53  34  48 CALM      30.25F
APPLETON       NOT AVBL
OSHKOSH        LGT RAIN  53  42  66 SE3       30.23F
FOND DU LAC    LGT RAIN  50  44  80 CALM      30.24S
$$

WIZ022-050-052-060700-
EAST CENTRAL WISCONSIN

CITY           SKY/WX    TMP DP  RH WIND       PRES   REMARKS
STURGEON BAY   CLOUDY    52  28  40 E6        30.28S
MANITOWOC      NOT AVBL
SHEBOYGAN      LGT RAIN  48  41  76 CALM      30.24F
$$

LMZ563-521-522-541>543-060700-
LAKESHORE

STATION/POSITION TIME  TEMP    WIND        PRES    VSBY  WAVE
                       AIR SEA DIR/SP/G                  HT/PER
                 (UTC) (F)     (DEG/KT/KT) (MB)    (MI)  (FT/S)
SHEBOYGAN LKSHOR 0500   48     320/  2/  2 1025.4R
KEWAUNEE LKSHORE 0500   47     290/  1/  3 1023.7S
NORTHPORT PIER   0500   48     320/  1/  2 1024.7S
CHAMBERS ISLAND  0500   44      CALM  /  1 1024.7S
MENOMINEE LKSHOR 0500   50     350/  2/  2 1025.0F
$$



USA.gov is the U.S. government's official web portal to all federal, state and local government web resources and services.